,,PA_Meas_PMT16A,,PR_Meas_QMR101_102,,RH_Meas_QMH101,,SR_Meas_QMS101,,TA_Meas_QMH101,,GenWind,,GenWind,
time,status,PA,status,PR,status,RH,status,SR,status,TA,status,DirAvg,status,SpdAvg,
2009-10-16, 00:00:04,VALID,920.092,VALID,0,VALID,97.7779,VALID,0,VALID,19.7973,VALID,130,VALID,0.502734,
2009-10-16, 00:01:04,VALID,920.104,VALID,0,VALID,97.7703,VALID,0,VALID,19.7778,VALID,130,VALID,0.648828,
2009-10-16, 00:02:04,VALID,920.114,VALID,0,VALID,97.7703,VALID,0,VALID,19.7793,VALID,130,VALID,0.613672,
2009-10-16, 00:03:04,VALID,920.034,VALID,0.2,VALID,97.7932,VALID,0,VALID,19.7988,VALID,130,VALID,0.478906,
2009-10-16, 00:04:04,VALID,920.041,VALID,0,VALID,97.7932,VALID,0,VALID,19.7778,VALID,130,VALID,0.472266,
2009-10-16, 00:05:04,VALID,920.053,VALID,0,VALID,97.8084,VALID,0,VALID,19.7988,VALID,130,VALID,0.731641,
2009-10-16, 00:06:04,VALID,920.044,VALID,0,VALID,97.7779,VALID,0,VALID,19.8183,VALID,130,VALID,0.578516,
2009-10-16, 00:07:04,VALID,920.007,VALID,0.2,VALID,97.7779,VALID,0,VALID,19.7988,VALID,130,VALID,0.721094,
2009-10-16, 00:08:04,VALID,920.021,VALID,0,VALID,97.7703,VALID,0,VALID,19.7778,VALID,130,VALID,0.500781,
2009-10-16, 00:09:04,VALID,919.994,VALID,0,VALID,97.7856,VALID,0.107441,VALID,19.7778,VALID,130,VALID,0.414844,
2009-10-16, 00:10:04,VALID,919.957,VALID,0,VALID,97.7856,VALID,0.107441,VALID,19.7778,VALID,130,VALID,0.367188,
2009-10-16, 00:11:04,VALID,919.946,VALID,0.2,VALID,97.7856,VALID,0,VALID,19.7568,VALID,130,VALID,0.256641,
2009-10-16, 00:12:04,VALID,919.927,VALID,0,VALID,97.7932,VALID,0,VALID,19.7583,VALID,130,VALID,0.540234,
2009-10-16, 00:13:04,VALID,919.938,VALID,0,VALID,97.7627,VALID,0.107441,VALID,19.7583,VALID,130,VALID,0.558984,
2009-10-16, 00:14:04,VALID,919.939,VALID,0,VALID,97.7703,VALID,0,VALID,19.7583,VALID,130,VALID,0.228125,
2009-10-16, 00:15:04,VALID,919.908,VALID,0.2,VALID,97.8237,VALID,0.107441,VALID,19.7388,VALID,130,VALID,0,
2009-10-16, 00:16:04,VALID,919.92,VALID,0,VALID,97.7703,VALID,0.107441,VALID,19.7388,VALID,130,VALID,0.590625,
2009-10-16, 00:17:04,VALID,919.907,VALID,0,VALID,97.7856,VALID,0.107441,VALID,19.6998,VALID,130,VALID,0.0351563,
2009-10-16, 00:18:04,VALID,919.882,VALID,0,VALID,97.7703,VALID,0.107441,VALID,19.6998,VALID,130,VALID,0.292578,
2009-10-16, 00:19:04,VALID,919.887,VALID,0,VALID,97.7627,VALID,0.107441,VALID,19.6803,VALID,130,VALID,0.462109,
2009-10-16, 00:20:04,VALID,919.846,VALID,0.2,VALID,97.7627,VALID,0.107441,VALID,19.6998,VALID,130,VALID,0.421484,
2009-10-16, 00:21:04,VALID,919.853,VALID,0,VALID,97.7627,VALID,0.107441,VALID,19.6803,VALID,130,VALID,0.421875,
2009-10-16, 00:22:04,VALID,919.821,VALID,0,VALID,97.8008,VALID,0,VALID,19.6608,VALID,130,VALID,0.177344,
2009-10-16, 00:23:04,VALID,919.796,VALID,0,VALID,97.7779,VALID,0,VALID,19.6413,VALID,130,VALID,0.372266,
2009-10-16, 00:24:04,VALID,919.797,VALID,0.2,VALID,97.8008,VALID,0,VALID,19.6413,VALID,130,VALID,0.430469,
2009-10-16, 00:25:04,VALID,919.764,VALID,0,VALID,97.7703,VALID,0,VALID,19.6428,VALID,130,VALID,0.602344,
2009-10-16, 00:26:04,VALID,919.774,VALID,0,VALID,97.7932,VALID,0,VALID,19.6233,VALID,130,VALID,0.374219,
2009-10-16, 00:27:04,VALID,919.774,VALID,0,VALID,97.816,VALID,0,VALID,19.6233,VALID,130,VALID,0.413281,
2009-10-16, 00:28:04,VALID,919.756,VALID,0,VALID,97.7932,VALID,0,VALID,19.6233,VALID,130,VALID,0.387109,
2009-10-16, 00:29:04,VALID,919.723,VALID,0.2,VALID,97.7856,VALID,0,VALID,19.6233,VALID,130,VALID,0.282031,
2009-10-16, 00:30:04,VALID,919.703,VALID,0,VALID,97.8084,VALID,0,VALID,19.6233,VALID,130,VALID,0.381641,
2009-10-16, 00:31:04,VALID,919.715,VALID,0,VALID,97.8008,VALID,0,VALID,19.6428,VALID,130,VALID,0.321484,
2009-10-16, 00:32:04,VALID,919.712,VALID,0,VALID,97.7932,VALID,0,VALID,19.6038,VALID,130,VALID,0.423438,
2009-10-16, 00:33:04,VALID,919.687,VALID,0.2,VALID,97.7779,VALID,0,VALID,19.6038,VALID,130,VALID,0.507422,
2009-10-16, 00:34:04,VALID,919.699,VALID,0,VALID,97.7932,VALID,0,VALID,19.6038,VALID,130,VALID,0.416406,
2009-10-16, 00:35:04,VALID,919.677,VALID,0,VALID,97.7932,VALID,0,VALID,19.6038,VALID,130,VALID,0.5875,
2009-10-16, 00:36:04,VALID,919.619,VALID,0,VALID,97.8237,VALID,0,VALID,19.5843,VALID,130,VALID,0.689844,
2009-10-16, 00:37:04,VALID,919.625,VALID,0,VALID,97.8084,VALID,0,VALID,19.5843,VALID,130,VALID,0.635156,
2009-10-16, 00:38:04,VALID,919.633,VALID,0,VALID,97.816,VALID,0,VALID,19.5843,VALID,130,VALID,0.518359,
2009-10-16, 00:39:04,VALID,919.608,VALID,0.2,VALID,97.816,VALID,0,VALID,19.5843,VALID,130,VALID,0.460547,
2009-10-16, 00:40:04,VALID,919.59,VALID,0,VALID,97.8084,VALID,0,VALID,19.5633,VALID,130,VALID,0.601563,
2009-10-16, 00:41:04,VALID,919.561,VALID,0,VALID,97.8237,VALID,0,VALID,19.5843,VALID,130,VALID,0.641016,
2009-10-16, 00:42:04,VALID,919.548,VALID,0,VALID,97.7932,VALID,0,VALID,19.5453,VALID,130,VALID,0.329297,
2009-10-16, 00:43:04,VALID,919.534,VALID,0,VALID,97.7856,VALID,0,VALID,19.5648,VALID,130,VALID,0.447266,
2009-10-16, 00:44:04,VALID,919.476,VALID,0,VALID,97.8237,VALID,0,VALID,19.5453,VALID,130,VALID,0.663281,
2009-10-16, 00:45:04,VALID,919.47,VALID,0,VALID,97.8313,VALID,0,VALID,19.5648,VALID,130,VALID,0.512109,
2009-10-16, 00:46:04,VALID,919.455,VALID,0,VALID,97.8237,VALID,0,VALID,19.5648,VALID,130,VALID,0.425781,
2009-10-16, 00:47:04,VALID,919.411,VALID,0,VALID,97.8465,VALID,0,VALID,19.5243,VALID,130,VALID,0.802734,
2009-10-16, 00:48:04,VALID,919.384,VALID,0,VALID,97.8237,VALID,0,VALID,19.5663,VALID,130,VALID,0.502734,
2009-10-16, 00:49:04,VALID,919.356,VALID,0,VALID,97.816,VALID,0,VALID,19.5258,VALID,130,VALID,0.450781,
2009-10-16, 00:50:04,VALID,919.354,VALID,0,VALID,97.8237,VALID,0,VALID,19.5258,VALID,130,VALID,0.641016,
2009-10-16, 00:51:04,VALID,919.322,VALID,0,VALID,97.8313,VALID,0,VALID,19.5258,VALID,130,VALID,0.675,
2009-10-16, 00:52:04,VALID,919.335,VALID,0,VALID,97.8237,VALID,0,VALID,19.5258,VALID,130,VALID,0.601953,
2009-10-16, 00:53:04,VALID,919.31,VALID,0,VALID,97.8237,VALID,0,VALID,19.5063,VALID,130,VALID,0.53125,
2009-10-16, 00:54:04,VALID,919.314,VALID,0.2,VALID,97.8237,VALID,0,VALID,19.5063,VALID,130,VALID,0.480469,
2009-10-16, 00:55:04,VALID,919.296,VALID,0,VALID,97.8542,VALID,0,VALID,19.4868,VALID,130,VALID,0.560547,
2009-10-16, 00:56:04,VALID,919.28,VALID,0,VALID,97.816,VALID,0,VALID,19.4868,VALID,130,VALID,0.548047,
2009-10-16, 00:57:04,VALID,919.274,VALID,0,VALID,97.8694,VALID,0,VALID,19.4658,VALID,130,VALID,0.583203,
2009-10-16, 00:58:04,VALID,919.253,VALID,0,VALID,97.8694,VALID,0,VALID,19.4868,VALID,130,VALID,0.232031,
2009-10-16, 00:59:04,VALID,919.221,VALID,0,VALID,97.8542,VALID,0,VALID,19.4868,VALID,130,VALID,0.464453,
2009-10-16, 01:00:04,VALID,919.2,VALID,0,VALID,97.8465,VALID,0,VALID,19.4673,VALID,130,VALID,0.573438,
2009-10-16, 01:01:04,VALID,919.204,VALID,0,VALID,97.8465,VALID,0,VALID,19.4673,VALID,130,VALID,0.247266,
2009-10-16, 01:02:04,VALID,919.15,VALID,0,VALID,97.8465,VALID,0,VALID,19.4868,VALID,130,VALID,0.444531,
2009-10-16, 01:03:04,VALID,919.146,VALID,0,VALID,97.8542,VALID,0,VALID,19.4868,VALID,130,VALID,0.105078,
2009-10-16, 01:04:04,VALID,919.117,VALID,0,VALID,97.816,VALID,0,VALID,19.4478,VALID,130,VALID,0.0960938,
2009-10-16, 01:05:04,VALID,919.091,VALID,0,VALID,97.8465,VALID,0,VALID,19.4673,VALID,130,VALID,0.128906,
2009-10-16, 01:06:04,VALID,919.053,VALID,0,VALID,97.8237,VALID,0,VALID,19.4868,VALID,130,VALID,0.370703,
2009-10-16, 01:07:04,VALID,919.045,VALID,0,VALID,97.8542,VALID,0,VALID,19.5078,VALID,130,VALID,0.323828,
2009-10-16, 01:08:04,VALID,919.024,VALID,0,VALID,97.8313,VALID,0.107441,VALID,19.4853,VALID,130,VALID,0.356641,
2009-10-16, 01:09:04,VALID,919.001,VALID,0,VALID,97.8465,VALID,0.107441,VALID,19.4853,VALID,130,VALID,0.254297,
2009-10-16, 01:10:04,VALID,919.015,VALID,0,VALID,97.8237,VALID,0,VALID,19.4658,VALID,130,VALID,0.265625,
2009-10-16, 01:11:04,VALID,918.989,VALID,0,VALID,97.8465,VALID,0.107441,VALID,19.4658,VALID,130,VALID,0.36875,
2009-10-16, 01:12:04,VALID,918.975,VALID,0,VALID,97.8389,VALID,0,VALID,19.4463,VALID,130,VALID,0.341016,
2009-10-16, 01:13:04,VALID,918.947,VALID,0,VALID,97.8389,VALID,0,VALID,19.4673,VALID,130,VALID,0.297266,
2009-10-16, 01:14:04,VALID,918.923,VALID,0,VALID,97.8618,VALID,0,VALID,19.4658,VALID,130,VALID,0.353516,
2009-10-16, 01:15:04,VALID,918.892,VALID,0,VALID,97.8694,VALID,0,VALID,19.5048,VALID,130,VALID,0,
2009-10-16, 01:16:04,VALID,918.877,VALID,0,VALID,97.8618,VALID,0,VALID,19.5243,VALID,130,VALID,0.0980469,
2009-10-16, 01:17:04,VALID,918.863,VALID,0,VALID,97.8542,VALID,0,VALID,19.5453,VALID,130,VALID,0.186719,
2009-10-16, 01:18:04,VALID,918.835,VALID,0,VALID,97.8465,VALID,0.107441,VALID,19.5243,VALID,130,VALID,0.163672,
2009-10-16, 01:19:04,VALID,918.822,VALID,0,VALID,97.8389,VALID,0,VALID,19.5648,VALID,130,VALID,0,
2009-10-16, 01:20:04,VALID,918.759,VALID,0,VALID,97.8465,VALID,0.107441,VALID,19.5438,VALID,130,VALID,0,
2009-10-16, 01:21:04,VALID,918.763,VALID,0,VALID,97.8694,VALID,0,VALID,19.5243,VALID,130,VALID,0,
2009-10-16, 01:22:04,VALID,918.73,VALID,0,VALID,97.8542,VALID,0.107441,VALID,19.5438,VALID,130,VALID,0,
2009-10-16, 01:23:04,VALID,918.666,VALID,0,VALID,97.8542,VALID,0,VALID,19.5258,VALID,130,VALID,0,
2009-10-16, 01:24:04,VALID,918.663,VALID,0,VALID,97.8465,VALID,0,VALID,19.5258,VALID,130,VALID,0,
2009-10-16, 01:25:04,VALID,918.617,VALID,0,VALID,97.8542,VALID,0,VALID,19.5063,VALID,130,VALID,0,
2009-10-16, 01:26:04,VALID,918.592,VALID,0,VALID,97.8389,VALID,0,VALID,19.5258,VALID,130,VALID,0,
2009-10-16, 01:27:04,VALID,918.591,VALID,0,VALID,97.8389,VALID,0,VALID,19.5063,VALID,130,VALID,0,
2009-10-16, 01:28:04,VALID,918.592,VALID,0,VALID,97.8389,VALID,0,VALID,19.5063,VALID,130,VALID,0,
2009-10-16, 01:29:04,VALID,918.559,VALID,0,VALID,97.8542,VALID,0,VALID,19.4868,VALID,130,VALID,0,
2009-10-16, 01:30:04,VALID,918.525,VALID,0,VALID,97.8618,VALID,0,VALID,19.5063,VALID,130,VALID,0,
2009-10-16, 01:31:04,VALID,918.497,VALID,0,VALID,97.8618,VALID,0,VALID,19.5063,VALID,130,VALID,0,
2009-10-16, 01:32:04,VALID,918.472,VALID,0,VALID,97.8389,VALID,0,VALID,19.4673,VALID,130,VALID,0,
2009-10-16, 01:33:04,VALID,918.448,VALID,0,VALID,97.8542,VALID,0,VALID,19.4673,VALID,130,VALID,0,
2009-10-16, 01:34:04,VALID,918.433,VALID,0,VALID,97.8694,VALID,0,VALID,19.4688,VALID,130,VALID,0,
2009-10-16, 01:35:04,VALID,918.432,VALID,0,VALID,97.8542,VALID,0,VALID,19.4883,VALID,130,VALID,0,
2009-10-16, 01:36:04,VALID,918.417,VALID,0,VALID,97.8465,VALID,0,VALID,19.4673,VALID,130,VALID,0.163281,
2009-10-16, 01:37:04,VALID,918.422,VALID,0,VALID,97.877,VALID,0,VALID,19.4868,VALID,130,VALID,0,
2009-10-16, 01:38:04,VALID,918.414,VALID,0,VALID,97.8618,VALID,0,VALID,19.4868,VALID,130,VALID,0,
2009-10-16, 01:39:04,VALID,918.352,VALID,0,VALID,97.8465,VALID,0,VALID,19.4673,VALID,130,VALID,0,
2009-10-16, 01:40:04,VALID,918.356,VALID,0,VALID,97.8694,VALID,0,VALID,19.4868,VALID,130,VALID,0,
2009-10-16, 01:41:04,VALID,918.345,VALID,0,VALID,97.8694,VALID,0,VALID,19.4673,VALID,130,VALID,0,
2009-10-16, 01:42:04,VALID,918.331,VALID,0,VALID,97.8542,VALID,0,VALID,19.4673,VALID,130,VALID,0,
2009-10-16, 01:43:04,VALID,918.327,VALID,0,VALID,97.8465,VALID,0,VALID,19.4478,VALID,130,VALID,0,
2009-10-16, 01:44:04,VALID,918.289,VALID,0,VALID,97.8618,VALID,0,VALID,19.4688,VALID,130,VALID,0,
2009-10-16, 01:45:04,VALID,918.309,VALID,0,VALID,97.8389,VALID,0,VALID,19.4088,VALID,130,VALID,0,
2009-10-16, 01:46:04,VALID,918.272,VALID,0,VALID,97.8237,VALID,0,VALID,19.3698,VALID,130,VALID,0,
2009-10-16, 01:47:04,VALID,918.27,VALID,0,VALID,97.8084,VALID,0,VALID,19.3503,VALID,130,VALID,0,
2009-10-16, 01:48:04,VALID,918.248,VALID,0,VALID,97.8389,VALID,0,VALID,19.3308,VALID,130,VALID,0,
2009-10-16, 01:49:04,VALID,918.216,VALID,0,VALID,97.8465,VALID,0,VALID,19.3308,VALID,130,VALID,0,
2009-10-16, 01:50:04,VALID,918.214,VALID,0,VALID,97.8618,VALID,0,VALID,19.3113,VALID,130,VALID,0,
2009-10-16, 01:51:04,VALID,918.205,VALID,0,VALID,97.8542,VALID,0,VALID,19.3113,VALID,130,VALID,0,
2009-10-16, 01:52:04,VALID,918.208,VALID,0,VALID,97.8694,VALID,0,VALID,19.3113,VALID,130,VALID,0,
2009-10-16, 01:53:04,VALID,918.177,VALID,0,VALID,97.8618,VALID,0,VALID,19.3308,VALID,130,VALID,0,
2009-10-16, 01:54:04,VALID,918.173,VALID,0,VALID,97.8618,VALID,0,VALID,19.3294,VALID,130,VALID,0,
2009-10-16, 01:55:04,VALID,918.158,VALID,0,VALID,97.8847,VALID,0,VALID,19.3294,VALID,130,VALID,0,
2009-10-16, 01:56:04,VALID,918.182,VALID,0,VALID,97.8694,VALID,0,VALID,19.3099,VALID,130,VALID,0,
2009-10-16, 01:57:04,VALID,918.17,VALID,0,VALID,97.8694,VALID,0,VALID,19.3294,VALID,130,VALID,0.0582031,
2009-10-16, 01:58:04,VALID,918.159,VALID,0,VALID,97.8694,VALID,0,VALID,19.3684,VALID,130,VALID,0.333203,
2009-10-16, 01:59:04,VALID,918.163,VALID,0,VALID,97.877,VALID,0,VALID,19.3489,VALID,130,VALID,0.428516,
2009-10-16, 02:00:04,VALID,918.151,VALID,0,VALID,97.8694,VALID,0,VALID,19.2889,VALID,130,VALID,0.619922,
2009-10-16, 02:01:04,VALID,918.141,VALID,0,VALID,97.8999,VALID,0,VALID,19.2904,VALID,130,VALID,0.727734,
2009-10-16, 02:02:04,VALID,918.123,VALID,0,VALID,97.877,VALID,0,VALID,19.2709,VALID,130,VALID,0.612891,
2009-10-16, 02:03:04,VALID,918.129,VALID,0,VALID,97.8694,VALID,0,VALID,19.2709,VALID,130,VALID,0.683984,
2009-10-16, 02:04:04,VALID,918.13,VALID,0,VALID,97.877,VALID,0,VALID,19.2904,VALID,130,VALID,0.683203,
2009-10-16, 02:05:04,VALID,918.101,VALID,0,VALID,97.8694,VALID,0,VALID,19.2709,VALID,130,VALID,0.633594,
2009-10-16, 02:06:04,VALID,918.126,VALID,0,VALID,97.8542,VALID,0.107441,VALID,19.2514,VALID,130,VALID,0.755078,
2009-10-16, 02:07:04,VALID,918.107,VALID,0,VALID,97.877,VALID,0,VALID,19.2514,VALID,130,VALID,0.632422,
2009-10-16, 02:08:04,VALID,918.075,VALID,0,VALID,97.8847,VALID,0,VALID,19.2109,VALID,130,VALID,0.5625,
2009-10-16, 02:09:04,VALID,918.078,VALID,0,VALID,97.8923,VALID,0,VALID,19.2319,VALID,130,VALID,0.688672,
2009-10-16, 02:10:04,VALID,918.082,VALID,0,VALID,97.8923,VALID,0.107441,VALID,19.2319,VALID,130,VALID,0.674609,
2009-10-16, 02:11:04,VALID,918.056,VALID,0,VALID,97.8923,VALID,0,VALID,19.2319,VALID,130,VALID,1.02734,
2009-10-16, 02:12:04,VALID,918.06,VALID,0,VALID,97.8923,VALID,0,VALID,19.2304,VALID,130,VALID,0.846094,
2009-10-16, 02:13:04,VALID,918.048,VALID,0,VALID,97.8847,VALID,0,VALID,19.2709,VALID,130,VALID,0.724609,
2009-10-16, 02:14:04,VALID,918.047,VALID,0,VALID,97.8847,VALID,0,VALID,19.2709,VALID,130,VALID,0.697656,
2009-10-16, 02:15:04,VALID,918.021,VALID,0,VALID,97.9152,VALID,0,VALID,19.2904,VALID,130,VALID,0.824609,
2009-10-16, 02:16:04,VALID,918.012,VALID,0,VALID,97.8847,VALID,0.107441,VALID,19.2904,VALID,130,VALID,0.687109,
2009-10-16, 02:17:04,VALID,918.02,VALID,0,VALID,97.9228,VALID,0.107441,VALID,19.2904,VALID,130,VALID,0.883984,
2009-10-16, 02:18:04,VALID,917.987,VALID,0,VALID,97.9075,VALID,0,VALID,19.3099,VALID,130,VALID,0.749609,
2009-10-16, 02:19:04,VALID,917.99,VALID,0,VALID,97.8923,VALID,0,VALID,19.3099,VALID,130,VALID,0.46875,
2009-10-16, 02:20:04,VALID,917.985,VALID,0,VALID,97.9075,VALID,0,VALID,19.3099,VALID,130,VALID,0.755859,
2009-10-16, 02:21:04,VALID,917.993,VALID,0,VALID,97.9075,VALID,0,VALID,19.3099,VALID,130,VALID,0.576563,
2009-10-16, 02:22:04,VALID,917.977,VALID,0,VALID,97.8923,VALID,0.107441,VALID,19.3294,VALID,130,VALID,0.749219,
2009-10-16, 02:23:04,VALID,917.968,VALID,0,VALID,97.8847,VALID,0,VALID,19.3113,VALID,130,VALID,0.353516,
2009-10-16, 02:24:04,VALID,917.969,VALID,0,VALID,97.8847,VALID,0,VALID,19.3113,VALID,130,VALID,0.577734,
2009-10-16, 02:25:04,VALID,917.97,VALID,0,VALID,97.9075,VALID,0,VALID,19.3128,VALID,130,VALID,0.542578,
2009-10-16, 02:26:04,VALID,917.937,VALID,0,VALID,97.9152,VALID,0,VALID,19.3113,VALID,130,VALID,0.841797,
2009-10-16, 02:27:04,VALID,917.9,VALID,0,VALID,97.9075,VALID,0,VALID,19.2918,VALID,130,VALID,0.890625,
2009-10-16, 02:28:04,VALID,917.879,VALID,0,VALID,97.8999,VALID,0,VALID,19.3113,VALID,130,VALID,0.844141,
2009-10-16, 02:29:04,VALID,917.876,VALID,0,VALID,97.9075,VALID,0,VALID,19.3113,VALID,130,VALID,0.672656,
2009-10-16, 02:30:04,VALID,917.822,VALID,0,VALID,97.9152,VALID,0,VALID,19.2918,VALID,130,VALID,0.619922,
2009-10-16, 02:31:04,VALID,917.817,VALID,0,VALID,97.9075,VALID,0,VALID,19.3113,VALID,130,VALID,0.664453,
2009-10-16, 02:32:04,VALID,917.794,VALID,0,VALID,97.8847,VALID,0,VALID,19.2918,VALID,130,VALID,0.621875,
2009-10-16, 02:33:04,VALID,917.788,VALID,0,VALID,97.9152,VALID,0,VALID,19.3113,VALID,130,VALID,0.632031,
2009-10-16, 02:34:04,VALID,917.757,VALID,0,VALID,97.9228,VALID,0,VALID,19.2918,VALID,130,VALID,0.767578,
2009-10-16, 02:35:04,VALID,917.746,VALID,0,VALID,97.9152,VALID,0,VALID,19.2918,VALID,130,VALID,0.590625,
2009-10-16, 02:36:04,VALID,917.766,VALID,0,VALID,97.9152,VALID,0,VALID,19.2918,VALID,130,VALID,0.623828,
2009-10-16, 02:37:04,VALID,917.744,VALID,0,VALID,97.9152,VALID,0,VALID,19.3128,VALID,130,VALID,0.51875,
2009-10-16, 02:38:04,VALID,917.747,VALID,0,VALID,97.9075,VALID,0,VALID,19.2904,VALID,130,VALID,0.880078,
2009-10-16, 02:39:04,VALID,917.742,VALID,0,VALID,97.9152,VALID,0,VALID,19.2904,VALID,130,VALID,0.786328,
2009-10-16, 02:40:04,VALID,917.739,VALID,0,VALID,97.9075,VALID,0,VALID,19.2904,VALID,130,VALID,0.760156,
2009-10-16, 02:41:04,VALID,917.721,VALID,0,VALID,97.8923,VALID,0.107441,VALID,19.2709,VALID,130,VALID,0.838281,
2009-10-16, 02:42:04,VALID,917.722,VALID,0,VALID,97.8999,VALID,0,VALID,19.2709,VALID,130,VALID,0.723437,
2009-10-16, 02:43:04,VALID,917.727,VALID,0,VALID,97.8999,VALID,0,VALID,19.2709,VALID,130,VALID,0.980078,
2009-10-16, 02:44:04,VALID,917.731,VALID,0,VALID,97.8847,VALID,0,VALID,19.2514,VALID,130,VALID,1.09492,
2009-10-16, 02:45:04,VALID,917.739,VALID,0,VALID,97.9228,VALID,0.107441,VALID,19.2514,VALID,130,VALID,1.20781,
2009-10-16, 02:46:04,VALID,917.74,VALID,0,VALID,97.9152,VALID,0,VALID,19.2514,VALID,130,VALID,1.23359,
2009-10-16, 02:47:04,VALID,917.735,VALID,0,VALID,97.9075,VALID,0,VALID,19.2319,VALID,130,VALID,0.784766,
2009-10-16, 02:48:04,VALID,917.751,VALID,0,VALID,97.9152,VALID,0,VALID,19.2319,VALID,130,VALID,1.1668,
2009-10-16, 02:49:04,VALID,917.769,VALID,0,VALID,97.9075,VALID,0,VALID,19.2723,VALID,130,VALID,1.20313,
2009-10-16, 02:50:04,VALID,917.76,VALID,0,VALID,97.9152,VALID,0,VALID,19.2528,VALID,130,VALID,1.40156,
2009-10-16, 02:51:04,VALID,917.745,VALID,0,VALID,97.9152,VALID,0,VALID,19.2528,VALID,130,VALID,1.05,
2009-10-16, 02:52:04,VALID,917.738,VALID,0,VALID,97.9228,VALID,0.107441,VALID,19.2319,VALID,130,VALID,1.2293,
2009-10-16, 02:53:04,VALID,917.701,VALID,0,VALID,97.9228,VALID,0,VALID,19.2334,VALID,130,VALID,1.29961,
2009-10-16, 02:54:04,VALID,917.725,VALID,0,VALID,97.9228,VALID,0,VALID,19.2334,VALID,147,VALID,1.28711,
2009-10-16, 02:55:04,VALID,917.704,VALID,0,VALID,97.9533,VALID,0,VALID,19.2139,VALID,140,VALID,0.683203,
2009-10-16, 02:56:04,VALID,917.72,VALID,0,VALID,97.9304,VALID,0,VALID,19.2528,VALID,140,VALID,1.16523,
2009-10-16, 02:57:04,VALID,917.681,VALID,0,VALID,97.9075,VALID,0,VALID,19.2334,VALID,140,VALID,1.12578,
2009-10-16, 02:58:04,VALID,917.652,VALID,0,VALID,97.9152,VALID,0,VALID,19.2139,VALID,139,VALID,0.732031,
2009-10-16, 02:59:04,VALID,917.636,VALID,0,VALID,97.9228,VALID,0,VALID,19.2334,VALID,139,VALID,1.10898,
2009-10-16, 03:00:04,VALID,917.634,VALID,0,VALID,97.9456,VALID,0,VALID,19.2334,VALID,139,VALID,0.932422,
2009-10-16, 03:01:04,VALID,917.597,VALID,0,VALID,97.9152,VALID,0,VALID,19.2334,VALID,139,VALID,0.73125,
2009-10-16, 03:02:04,VALID,917.596,VALID,0,VALID,97.9075,VALID,0,VALID,19.2139,VALID,139,VALID,0.563281,
2009-10-16, 03:03:04,VALID,917.582,VALID,0,VALID,97.9304,VALID,0,VALID,19.2139,VALID,139,VALID,0.586328,
2009-10-16, 03:04:04,VALID,917.56,VALID,0,VALID,97.9228,VALID,0,VALID,19.2543,VALID,139,VALID,0.980078,
2009-10-16, 03:05:04,VALID,917.561,VALID,0,VALID,97.9228,VALID,0,VALID,19.2139,VALID,139,VALID,0.650391,
2009-10-16, 03:06:04,VALID,917.551,VALID,0,VALID,97.9152,VALID,0,VALID,19.1944,VALID,139,VALID,0.824609,
2009-10-16, 03:07:04,VALID,917.571,VALID,0,VALID,97.9152,VALID,0,VALID,19.1944,VALID,139,VALID,0.867969,
2009-10-16, 03:08:04,VALID,917.555,VALID,0,VALID,97.9228,VALID,0,VALID,19.2139,VALID,139,VALID,0.785156,
2009-10-16, 03:09:04,VALID,917.534,VALID,0,VALID,97.9228,VALID,0,VALID,19.2124,VALID,139,VALID,0.789453,
2009-10-16, 03:10:04,VALID,917.521,VALID,0,VALID,97.9304,VALID,0,VALID,19.1944,VALID,139,VALID,0.694141,
2009-10-16, 03:11:04,VALID,917.534,VALID,0,VALID,97.9228,VALID,0,VALID,19.1749,VALID,139,VALID,0.485156,
2009-10-16, 03:12:04,VALID,917.532,VALID,0,VALID,97.938,VALID,0,VALID,19.1749,VALID,139,VALID,0.689453,
2009-10-16, 03:13:04,VALID,917.548,VALID,0,VALID,97.9152,VALID,0,VALID,19.1944,VALID,139,VALID,0.64375,
2009-10-16, 03:14:04,VALID,917.546,VALID,0,VALID,97.9228,VALID,0,VALID,19.1749,VALID,139,VALID,0.558984,
2009-10-16, 03:15:04,VALID,917.545,VALID,0,VALID,97.9304,VALID,0,VALID,19.1749,VALID,139,VALID,0.667188,
2009-10-16, 03:16:04,VALID,917.578,VALID,0,VALID,97.9533,VALID,0,VALID,19.1944,VALID,139,VALID,0.936719,
2009-10-16, 03:17:04,VALID,917.607,VALID,0,VALID,97.938,VALID,0,VALID,19.2153,VALID,139,VALID,0.282422,
2009-10-16, 03:18:04,VALID,917.613,VALID,0,VALID,97.9304,VALID,0,VALID,19.1944,VALID,139,VALID,0.601563,
2009-10-16, 03:19:04,VALID,917.607,VALID,0,VALID,97.9533,VALID,0.107441,VALID,19.1734,VALID,139,VALID,0.380078,
2009-10-16, 03:20:04,VALID,917.599,VALID,0,VALID,97.9304,VALID,0,VALID,19.1944,VALID,139,VALID,0.776563,
2009-10-16, 03:21:04,VALID,917.601,VALID,0,VALID,97.938,VALID,0,VALID,19.1944,VALID,139,VALID,0.385156,
2009-10-16, 03:22:04,VALID,917.62,VALID,0,VALID,97.9456,VALID,0,VALID,19.1944,VALID,139,VALID,1.25312,
2009-10-16, 03:23:04,VALID,917.606,VALID,0,VALID,97.9304,VALID,0.107441,VALID,19.2124,VALID,139,VALID,0.519531,
2009-10-16, 03:24:04,VALID,917.61,VALID,0,VALID,97.9533,VALID,0,VALID,19.2139,VALID,139,VALID,0.563672,
2009-10-16, 03:25:04,VALID,917.612,VALID,0,VALID,97.9304,VALID,0.107441,VALID,19.1929,VALID,139,VALID,0.841406,
2009-10-16, 03:26:04,VALID,917.596,VALID,0,VALID,97.9533,VALID,0.107441,VALID,19.2139,VALID,139,VALID,1.11523,
2009-10-16, 03:27:04,VALID,917.587,VALID,0,VALID,97.9228,VALID,0,VALID,19.1929,VALID,139,VALID,1.0125,
2009-10-16, 03:28:04,VALID,917.614,VALID,0,VALID,97.938,VALID,0.107441,VALID,19.1929,VALID,138,VALID,0.870313,
2009-10-16, 03:29:04,VALID,917.62,VALID,0,VALID,97.9533,VALID,0.107441,VALID,19.1944,VALID,138,VALID,0.439063,
2009-10-16, 03:30:04,VALID,917.596,VALID,0,VALID,97.938,VALID,0.107441,VALID,19.1734,VALID,138,VALID,0.355469,
2009-10-16, 03:31:04,VALID,917.597,VALID,0,VALID,97.9609,VALID,0.107441,VALID,19.1734,VALID,138,VALID,0.667578,
2009-10-16, 03:32:04,VALID,917.593,VALID,0,VALID,97.9685,VALID,0.107441,VALID,19.1734,VALID,138,VALID,0.536328,
2009-10-16, 03:33:04,VALID,917.627,VALID,0,VALID,97.938,VALID,0.107441,VALID,19.1734,VALID,138,VALID,0.615625,
2009-10-16, 03:34:04,VALID,917.575,VALID,0,VALID,97.938,VALID,0.107441,VALID,19.1929,VALID,138,VALID,0.614062,
2009-10-16, 03:35:04,VALID,917.596,VALID,0,VALID,97.9609,VALID,0.107441,VALID,19.2139,VALID,138,VALID,0.313672,
2009-10-16, 03:36:04,VALID,917.574,VALID,0,VALID,97.9456,VALID,0.107441,VALID,19.1734,VALID,138,VALID,0.307031,
2009-10-16, 03:37:04,VALID,917.597,VALID,0,VALID,97.9456,VALID,0.107441,VALID,19.1734,VALID,139,VALID,0.34375,
2009-10-16, 03:38:04,VALID,917.583,VALID,0,VALID,97.9533,VALID,0,VALID,19.1554,VALID,138,VALID,0.247266,
2009-10-16, 03:39:04,VALID,917.559,VALID,0,VALID,97.9304,VALID,0,VALID,19.1554,VALID,138,VALID,0.341797,
2009-10-16, 03:40:04,VALID,917.558,VALID,0,VALID,97.9228,VALID,0,VALID,19.1359,VALID,138,VALID,0.534766,
2009-10-16, 03:41:04,VALID,917.541,VALID,0,VALID,97.938,VALID,0,VALID,19.1164,VALID,138,VALID,0.525391,
2009-10-16, 03:42:04,VALID,917.546,VALID,0,VALID,97.9685,VALID,0,VALID,19.1164,VALID,138,VALID,0.48125,
2009-10-16, 03:43:04,VALID,917.564,VALID,0,VALID,97.938,VALID,0,VALID,19.0969,VALID,138,VALID,0.580469,
2009-10-16, 03:44:04,VALID,917.531,VALID,0,VALID,97.9456,VALID,0,VALID,19.0969,VALID,138,VALID,0.40625,